Main page
METAR-TAF:

METAR-TAF

Airports :

Hartford–Brainard Airport

Hartford, Connecticut, United States

latitude: 41-44-06N, longitude: 072-39-06W, elevation: 16 ft

Current weather observation

The report was made 30 minutes ago, at 17:53 UTC
Wind 9 mph from the South/Southwest
Temperature 61°F
Humidity 18%
Pressure 29.98 in. Hg
Visibility: 10 miles
Clear sky

METAR: KHFD 241753Z 21008KT 10SM CLR 16/M08 A2998 RMK AO2 SLP152 T01561078 10156 21017 58024

Time: 13:23 (18:23 UTC)


TAF: missing

Weather observations and forecasts of more than 4000 airports (METAR and TAF reports).

The available stations are represented by yellow and red dots on the map.

Hover mouse over dot to see the name of the station.

Then click to see weather observations and forecasts.

To change the map : click on the green buttons with a black cross to zoom in, on the green button with a dash to zoom out, or on the green arrows for adjacent maps.


METAR-TAF: